Location: Bu�n Treun
(12.1333°N, 108.3167°E)
Time: 23:41:27
(UTC+00:00)

H-2A ROCKET BODY - Pass Details

Date: 13 July 2020
Orbit: 243 x 15323 km, 28.6° (Epoch: 02 August)

Event Time Altitude Azimuth Distance (km) Brightness Sun altitude
Rises 13:55:33 0° 309° (NW) 3,167 6.2 -34.9°
Reaches altitude 10° 13:57:04 10° 315° (NW) 2,645 5.5 -35.2°
Maximum altitude 14:03:17 54° 34° (NNE) 2,273 4.2 -36.4°
Enters shadow 14:07:23 44° 77° (ENE) 3,431 4.9 -37.2°
Exits shadow 14:42:30 - 109° (ESE) 13,330 7.9 -43.5°
Sets 15:04:27 0° 113° (ESE) 17,251 8.5 -47.0°
